La Grande, OR

4:52 PM PST on December 05, 2019 (GMT -0800)
La Grande-Union County

Weather History for KLGD - September, 2019

Change the Weather History Date:

Tuesday, September 10, 2019

  Actual Average Record
Temperature  
Mean Temperature 55 °F -  
Max Temperature 68 °F 74 °F 92 °F (1966)
Min Temperature 42 °F 44 °F 33 °F (2007)
Degree Days  
Heating Degree Days 10    
Growing Degree Days 5 (Base 50)    
Moisture  
Dew Point 47 °F    
Average Humidity 80    
Maximum Humidity 97    
Minimum Humidity 50    
Precipitation  
Precipitation 0.22 in - - ()
Sea Level Pressure  
Sea Level Pressure 30.31 in    
Wind  
Wind Speed 4 mph (WNW)    
Max Wind Speed 13 mph    
Max Gust Speed -    
Visibility 10 miles    
Events Rain , Thunderstorm    
Averages and records for this station are not official NWS values.
T = Trace of Precipitation, MM = Missing Value Source: NWS Daily Summary

Daily Weather History Graph

Daily Weather History Graph

Search for Another Location

Airport or City:

Astronomy

Sep. 10, 2019 Rise Set
Actual Time 6:24 AM PDT 7:12 PM PDT
Civil Twilight 5:54 AM PDT 7:42 PM PDT
Nautical Twilight 5:18 AM PDT 8:18 PM PDT
Astronomical Twilight 4:41 AM PDT 8:55 PM PDT
Moon 6:03 PM PDT (9/10) 2:42 AM PDT (9/10)
Length of Visible Light 13h 48m
Length of Day
12h 48m
Waxing Gibbous, 90% of the Moon is Illuminated
Sep 10
Waxing Gibbous
Sep 13
Full
Sep 21
Last Quarter
Sep 28
New
Oct 5
First Quarter

Hourly Weather History & Observations

Time (PDT) Temp. Windchill Dew Point Humidity Pressure Visibility Wind Dir Wind Speed Gust Speed Precip Events Conditions
12:56 AM 46.0 °F 44.8 °F 44.1 °F 93% 30.33 in 10.0 mi North 3.5 mph - N/A   Clear
1:56 AM 45.0 °F - 44.1 °F 97% 30.34 in 10.0 mi Calm Calm - N/A   Clear
2:56 AM 44.1 °F 42.5 °F 43.0 °F 96% 30.34 in 10.0 mi SSW 3.5 mph - N/A   Clear
3:56 AM 42.1 °F - 41.0 °F 96% 30.34 in 10.0 mi Calm Calm - N/A   Partly Cloudy
4:56 AM 42.1 °F - 41.0 °F 96% 30.34 in 10.0 mi Calm Calm - N/A   Overcast
5:56 AM 44.1 °F - 43.0 °F 96% 30.34 in 10.0 mi Calm Calm - N/A   Overcast
6:56 AM 44.1 °F - 42.1 °F 93% 30.35 in 10.0 mi Calm Calm - N/A   Overcast
8:56 AM 50.0 °F - 46.9 °F 89% 30.36 in 10.0 mi Calm Calm - N/A   Mostly Cloudy
9:56 AM 55.9 °F - 48.0 °F 75% 30.36 in 10.0 mi Calm Calm - N/A   Clear
10:56 AM 61.0 °F - 48.9 °F 64% 30.35 in 10.0 mi West 5.8 mph - N/A   Scattered Clouds
11:56 AM 64.0 °F - 48.9 °F 58% 30.34 in 10.0 mi NW 10.4 mph - N/A   Partly Cloudy
12:56 PM 66.0 °F - 48.9 °F 54% 30.33 in 10.0 mi WNW 9.2 mph - N/A   Clear
1:56 PM 68.0 °F - 48.9 °F 50% 30.32 in 10.0 mi West 9.2 mph - N/A   Clear
2:56 PM 66.0 °F - 48.9 °F 54% 30.31 in 10.0 mi North - - N/A   Partly Cloudy
3:21 PM 66.2 °F - 48.2 °F 52% 29.90 in 10.0 mi North - - N/A Thunderstorm Clear
3:46 PM 62.6 °F - 46.4 °F 55% 29.91 in 10.0 mi NNE 12.7 mph - N/A   Mostly Cloudy
4:37 PM 55.4 °F - 48.2 °F 77% 29.96 in 10.0 mi WNW 11.5 mph - 0.00 in Rain , Thunderstorm Light Rain
4:56 PM 55.0 °F - 48.9 °F 80% 30.37 in 10.0 mi WNW 10.4 mph - 0.01 in Rain Light Rain
5:56 PM 54.0 °F - 48.9 °F 83% 30.38 in 7.0 mi West 5.8 mph - 0.14 in Rain Rain
6:56 PM 53.1 °F - 50.0 °F 89% 30.38 in 10.0 mi South 6.9 mph - 0.07 in Rain Light Rain
7:56 PM 53.1 °F - 50.0 °F 89% 30.39 in 10.0 mi Calm Calm - 0.00 in   Scattered Clouds
8:56 PM 52.0 °F - 50.0 °F 93% 30.40 in 10.0 mi West 4.6 mph - N/A   Mostly Cloudy
9:56 PM 50.0 °F - 48.0 °F 93% 30.42 in 10.0 mi NW 4.6 mph - N/A   Clear
10:56 PM 50.0 °F - 46.9 °F 89% 30.42 in 10.0 mi Calm Calm - N/A   Partly Cloudy
11:56 PM 48.9 °F - 46.9 °F 93% 30.42 in 10.0 mi East 4.6 mph - N/A   Scattered Clouds